This is the latest recevied weather packets stored in our database for station/object KA3BQE-13. If no packets are shown the sender has not sent any weather packets the latest 10 day(s).
| Time | Temp. | Humidity | Pressure | Rain* | Wind** | Luminosity | Snow |
|---|---|---|---|---|---|---|---|
| 1778026122 | 10° C | 86% | 1010.7 hPa | 0 mm | - | 13 W/m² | - |
| 1778025819 | 10° C | 85% | 1010.5 hPa | 0 mm | - | 21 W/m² | - |
| 1778025516 | 10° C | 85% | 1010.7 hPa | 0 mm | - | 21 W/m² | - |
| 1778025213 | 10° C | 83% | 1010.6 hPa | 0 mm | - | 27 W/m² | - |
| 1778024910 | 10° C | 81% | 1010.7 hPa | 0 mm | - | 28 W/m² | - |
| 1778024608 | 10.56° C | 80% | 1010.9 hPa | 0 mm | - | 33 W/m² | - |
| 1778024305 | 10.56° C | 77% | 1010.9 hPa | 0 mm | - | 30 W/m² | - |
| 1778024003 | 10.56° C | 80% | 1011 hPa | 0 mm | - | 46 W/m² | - |
| 1778023700 | 10.56° C | 80% | 1011 hPa | 0 mm | - | 52 W/m² | - |
| 1778023397 | 10.56° C | 77% | 1011 hPa | 0 mm | - | 40 W/m² | - |
| 1778023094 | 10.56° C | 74% | 1010.9 hPa | 0 mm | - | 37 W/m² | - |
| 1778022792 | 10.56° C | 77% | 1011 hPa | 0 mm | - | 50 W/m² | - |
| 1778022485 | 10.56° C | 78% | 1010.9 hPa | 0 mm | - | 54 W/m² | - |
| 1778022181 | 10° C | 75% | 1011 hPa | 0 mm | - | 54 W/m² | - |
| 1778021878 | 10° C | 76% | 1010.9 hPa | 0 mm | - | 50 W/m² | - |
| 1778021575 | 10° C | 76% | 1010.7 hPa | 0 mm | - | 67 W/m² | - |
| 1778021270 | 10° C | 78% | 1010.9 hPa | 0 mm | - | 54 W/m² | - |
| 1778020968 | 10.56° C | 80% | 1010.8 hPa | 0 mm | - | 74 W/m² | - |
| 1778020665 | 10.56° C | 80% | 1010.5 hPa | 0 mm | - | 73 W/m² | - |
| 1778020361 | 10.56° C | 81% | 1010.8 hPa | 0 mm | - | 66 W/m² | - |
| 1778020057 | 10.56° C | 81% | 1010.7 hPa | 0 mm | - | 94 W/m² | - |
| 1778019754 | 10° C | 79% | 1010.9 hPa | 0 mm | - | 103 W/m² | - |
| 1778019452 | 10.56° C | 80% | 1010.7 hPa | 0 mm | - | 93 W/m² | - |
| 1778019148 | 10° C | 80% | 1010.9 hPa | 0 mm | - | 92 W/m² | - |
| 1778018845 | 10° C | 80% | 1010.4 hPa | 0 mm | - | 103 W/m² | - |
* Rain latest hour (hover to see other rain measurements)
** Current wind speed in m/s (hover to see current wind gust speed)